RH
20 27 29 26 23 22 28 28 29 28 21 32 49 57 54 46 35 40 48 44 45 46 45 45 45 49 52 59 62 62 65 66 64 66 66 63 53 48 35 26 30 38 50 62
30 33 23 29 30 28 33 38 42 37 30 30 56 61 57 51 40 41 46 45 41 41 42 44 43 45 52 58 65 61 64 67 69 68 66 58 51 50 33 30 34 33 32 37
43 37 32 32 44 37 30 42 46 47 38 34 46 56 73 63 50 42 42 44 43 42 43 41 41 44 52 64 65 62 65 69 68 67 60 52 52 41 30 29 24 26 40 40
44 38 41 42 43 48 40 38 46 49 46 51 47 71 82 75 69 56 48 43 46 50 49 45 50 61 64 63 62 63 69 67 67 60 53 54 44 36 37 34 23 18 22 24
46 49 47 48 44 46 45 52 53 48 50 58 77 87 83 77 73 61 54 67 55 52 49 48 61 63 64 63 63 68 66 66 59 53 55 39 37 44 40 27 24 24 24 28
43 36 41 46 47 43 49 52 50 58 61 87 84 84 90 91 72 61 65 69 72 62 62 66 67 65 64 66 66 66 63 57 58 46 33 41 47 46 34 28 28 31 36 36
53 44 48 43 56 54 61 68 82 69 86 84 77 86 93 72 65 70 77 81 77 74 64 66 63 63 64 65 62 64 61 42 35 33 39 47 48 40 34 29 36 42 43 44
71 26 60 44 41 65 74 69 89 87 93 87 77 97 94 60 67 72 78 81 73 69 65 66 67 64 64 70 60 42 37 34 36 41 41 38 30 33 32 34 41 45 47 51
78 42 51 38 40 74 81 94 80 86 71 90 83 99 86 56 70 74 80 76 72 70 68 66 65 69 68 56 46 39 37 38 39 33 33 33 30 28 32 41 50 58 59 55
54 72 46 41 55 57 69 65 90 90 93 94 80 93 100 83 67 76 80 78 75 70 66 66 70 66 60 54 44 41 42 39 32 31 28 24 22 30 38 46 46 56 56 54
41 59 37 47 63 72 82 83 81 85 94 98 96 98 92 92 72 73 75 74 71 66 67 71 69 62 58 49 44 39 31 32 29 19 15 17 9 6 7 11 18 33 44 84
45 55 72 52 43 46 54 80 87 91 93 99 99 96 81 80 82 60 68 69 68 67 68 68 65 61 54 46 40 33 33 21 13 11 5 4 4 5 7 13 21 32 86 97
65 71 86 53 49 56 62 58 60 100 100 99 98 97 74 66 68 63 67 65 66 66 67 68 63 58 49 45 35 34 24 13 10 4 4 5 6 7 8 16 29 79 98 97
58 75 74 89 66 67 76 72 85 98 99 98 99 100 88 77 71 72 66 64 66 66 67 66 61 54 48 35 33 28 15 12 4 4 5 6 7 9 15 34 70 97 97 96
76 83 80 82 76 70 91 100 91 100 100 100 100 99 87 81 70 69 63 65 65 66 67 64 60 49 35 31 30 16 12 6 4 5 6 7 9 14 33 86 97 96 96 96
82 90 72 84 63 98 100 99 96 100 97 98 97 95 69 70 62 65 62 63 63 65 66 64 52 43 32 32 18 13 6 5 5 6 7 8 12 18 91 97 96 96 96 96
90 94 77 75 78 100 99 100 100 97 96 96 97 96 68 65 64 61 58 60 60 64 65 57 50 30 31 21 14 6 5 6 6 7 8 10 17 44 97 96 96 96 96 96
90 92 88 92 84 94 98 86 93 95 92 88 86 89 91 71 58 56 57 57 58 61 61 53 29 29 25 16 7 6 6 7 7 8 9 11 24 54 96 97 96 96 97 97
83 88 94 95 98 88 97 95 96 98 94 85 84 88 90 73 51 52 54 54 57 59 54 35 25 25 17 13 11 9 10 9 8 8 9 12 31 67 97 97 96 97 97 96
79 84 93 96 97 93 99 88 91 86 99 88 87 90 95 92 68 63 50 53 55 54 40 22 24 22 16 15 15 14 14 12 8 9 10 13 30 58 97 97 96 98 97 100
90 85 90 97 97 99 80 90 76 95 100 95 90 91 96 97 62 61 53 54 53 44 24 23 24 17 15 16 16 16 16 12 10 10 10 14 24 54 97 97 97 97 100 100
96 91 97 95 95 96 68 83 97 96 87 86 87 90 94 77 54 54 53 52 48 32 22 25 24 16 16 17 17 17 16 13 12 11 12 15 12 41 96 97 97 97 100 100
85 84 95 90 85 59 72 75 82 86 82 86 89 84 88 68 58 53 51 52 40 34 22 24 23 16 17 17 16 18 16 14 13 12 14 15 10 24 89 96 98 97 98 99
73 89 83 95 75 88 82 81 74 78 84 80 85 82 75 62 55 51 50 49 40 34 22 23 23 16 16 16 17 17 15 14 14 14 14 14 12 14 65 95 97 98 97 100
94 99 98 88 81 92 81 73 74 74 75 78 78 76 60 51 52 50 49 45 42 37 22 23 22 16 16 16 16 16 16 14 14 14 14 14 13 12 53 76 97 97 98 99
99 99 100 98 97 100 97 77 73 83 79 78 77 59 55 47 47 47 48 43 43 42 24 22 21 16 15 16 17 16 15 14 15 14 14 14 14 12 24 89 97 97 97 98
Wind_Speed
6 8 4 3 3 4 5 2 2 4 3 4 3 5 8 15 27 24 6 20 23 25 25 25 23 23 26 22 20 18 14 12 12 14 17 18 19 21 23 23 22 20 19 19
7 7 3 3 6 5 4 3 4 6 6 3 4 6 6 8 15 20 5 18 22 22 21 21 21 21 24 24 22 19 15 13 14 16 18 20 23 27 27 23 21 21 22 22
7 5 5 3 7 7 2 4 4 7 6 4 4 4 9 11 12 26 12 8 13 17 18 17 18 18 19 22 21 16 14 14 16 18 20 23 27 28 25 24 24 23 22 23
8 9 6 8 6 5 3 3 5 7 1 1 4 3 6 12 11 17 14 9 8 10 13 14 14 8 14 18 14 13 13 15 18 20 23 27 29 27 25 27 28 27 25 26
2 7 10 6 3 5 5 11 4 2 1 4 8 4 7 7 12 16 14 11 14 13 15 15 11 12 15 11 11 10 13 17 20 23 27 28 26 25 28 30 29 27 27 25
3 5 5 3 9 3 10 6 4 3 3 4 6 3 5 4 7 7 11 12 9 12 12 14 16 14 11 7 6 11 15 18 22 25 26 25 26 28 32 31 30 30 28 27
7 4 6 10 6 7 12 5 4 5 5 3 3 4 4 9 6 6 6 9 7 15 19 18 14 9 2 5 9 13 18 21 23 24 25 26 28 31 33 33 33 33 34 33
6 6 9 12 2 5 5 3 3 3 1 3 5 1 2 3 6 10 10 9 14 18 17 13 7 3 4 9 13 16 19 22 23 25 26 28 31 33 35 35 34 36 37 37
5 4 5 4 3 3 6 5 0 1 3 2 1 1 6 4 5 10 10 12 16 14 10 7 4 5 9 12 17 20 22 23 24 28 30 31 33 34 35 36 36 37 38 38
2 4 1 7 6 7 5 4 3 3 4 4 4 2 2 4 4 4 7 11 12 9 6 3 5 8 12 16 19 21 23 25 28 30 32 34 35 36 38 38 38 37 37 35
2 3 7 3 6 5 5 5 4 2 2 0 2 2 5 5 1 6 9 9 8 6 3 3 7 10 15 18 20 24 25 27 29 32 34 36 37 37 36 35 34 33 33 37
3 2 4 4 6 4 4 3 3 3 5 2 1 2 2 6 1 12 11 10 7 3 2 5 8 12 16 19 22 23 26 30 31 32 33 34 36 35 33 31 30 29 31 26
4 3 4 7 5 6 4 4 6 4 2 2 2 3 6 10 9 8 12 9 5 1 3 6 8 12 17 20 22 25 28 30 32 31 33 36 38 38 36 32 29 28 23 19
2 2 3 3 5 1 6 14 12 4 1 2 1 4 4 4 3 8 9 7 4 3 6 7 10 14 17 21 23 27 28 29 31 32 35 38 39 38 37 32 28 23 18 16
4 3 4 7 10 5 5 9 12 8 7 2 2 3 4 3 4 9 8 6 4 5 6 8 11 14 19 21 25 26 28 29 31 34 36 39 41 37 35 35 30 23 17 15
6 3 4 3 4 3 1 12 10 10 8 4 2 4 7 7 12 9 7 6 5 6 6 8 11 16 18 22 24 27 27 29 31 34 37 40 41 39 43 33 28 22 19 18
4 3 4 3 8 3 2 10 9 6 14 7 11 7 12 5 5 7 7 6 6 7 7 8 13 15 18 21 25 26 27 28 31 35 37 42 47 44 40 33 28 25 23 22
4 3 2 3 4 3 1 9 6 5 16 18 16 15 15 12 5 4 5 5 5 5 6 10 12 14 17 20 22 24 26 30 33 36 42 44 47 46 40 33 28 25 25 27
1 1 2 2 1 2 2 8 6 6 9 19 17 20 20 19 5 3 5 7 5 3 7 9 11 14 16 19 22 24 27 30 34 41 41 44 49 46 39 34 28 26 27 27
3 4 2 2 2 2 4 14 17 5 3 23 23 19 19 20 4 4 4 2 1 3 6 7 11 14 16 19 22 25 28 32 38 38 39 42 46 48 43 34 27 26 25 28
4 4 4 2 2 3 9 26 14 2 5 26 22 20 20 6 6 11 3 4 0 3 5 7 11 13 16 19 22 25 28 33 35 36 37 40 44 50 46 33 27 26 27 28
2 3 3 3 3 2 20 10 5 7 18 19 23 23 23 12 1 8 7 3 2 4 5 7 11 13 15 19 22 25 29 31 34 36 37 38 44 49 50 37 29 29 30 31
2 2 2 2 2 10 13 12 13 7 18 22 23 20 16 5 7 10 7 2 2 4 5 7 10 13 16 19 22 25 29 31 33 35 38 39 44 45 45 45 36 34 34 34
5 7 1 4 2 19 23 8 12 20 26 22 20 15 9 3 9 8 5 1 2 5 5 7 10 13 15 17 21 24 27 29 31 35 38 41 40 43 44 47 41 37 35 34
3 7 5 4 5 20 3 11 27 28 21 23 16 10 6 7 11 7 4 1 2 5 6 7 10 12 14 16 19 22 25 27 30 32 36 39 41 43 41 39 43 37 32 31
6 3 3 3 18 13 24 24 25 23 25 21 15 4 3 8 10 8 5 1 3 5 6 7 10 10 12 14 17 20 23 26 27 31 35 38 41 43 43 40 37 34 28 25
Wind_Direction
30 71 82 75 49 97 94 77 310 290 285 91 67 34 339 354 19 1 237 187 188 194 198 201 207 214 215 214 212 217 226 245 265 284 297 300 306 310 313 309 302 297 291 282
36 52 14 60 54 92 70 51 343 293 294 162 120 34 331 6 21 12 6 182 183 187 195 197 209 221 225 219 213 219 235 251 274 287 294 302 310 317 313 307 303 300 293 286
78 334 360 60 45 25 28 43 299 246 322 13 126 5 6 348 28 24 49 157 173 183 173 186 204 218 220 210 208 222 242 263 278 286 297 306 312 311 310 307 305 303 299 295
72 349 25 28 40 25 301 357 276 291 100 167 26 281 25 343 349 18 29 110 121 154 165 183 197 192 185 188 204 232 253 275 287 298 307 312 313 314 315 313 309 305 301 296
24 24 12 12 353 319 276 315 283 280 116 85 356 66 330 325 351 5 23 58 123 154 175 176 163 165 167 187 221 249 278 291 300 307 310 312 314 315 314 312 308 306 305 300
37 355 58 294 305 316 317 329 28 54 72 49 310 111 350 356 339 5 33 54 96 138 137 139 145 155 181 203 270 288 297 305 310 311 313 316 317 318 314 315 311 310 305 299
340 26 334 5 350 342 6 18 358 10 16 208 339 63 235 326 9 30 57 60 93 132 136 134 150 166 202 298 308 312 315 314 315 317 320 320 318 315 313 313 311 308 302 297
30 340 7 335 5 287 314 48 128 212 343 300 18 44 346 53 56 69 81 97 122 127 130 136 121 84 348 334 331 326 324 324 326 324 322 321 317 314 312 310 306 303 300 299
16 285 319 297 297 3 335 34 284 273 24 50 303 271 320 95 43 63 84 120 128 130 128 114 75 11 348 341 336 335 333 332 331 328 325 320 317 314 310 308 303 300 300 300
331 317 314 298 6 13 65 315 9 15 42 337 313 50 33 42 43 81 104 134 138 139 126 83 19 355 348 340 339 338 337 336 332 327 324 322 322 317 311 307 304 301 301 300
47 118 303 358 38 4 353 14 12 98 84 302 315 318 235 304 114 162 160 160 159 149 109 24 358 346 339 341 342 342 339 335 332 332 332 330 327 322 317 313 311 310 311 307
328 138 300 274 312 343 55 96 94 95 308 255 264 303 19 333 309 166 164 166 172 154 6 343 337 337 341 343 342 341 341 339 341 341 341 339 337 337 333 327 322 318 320 320
332 360 350 350 4 8 22 336 351 266 219 281 316 306 355 44 68 147 149 166 173 208 313 320 331 339 343 340 344 345 344 344 346 347 346 347 348 346 342 336 332 333 332 335
83 55 129 197 241 237 314 318 322 282 221 288 338 316 353 40 80 130 153 172 181 265 302 316 334 342 341 345 347 347 347 349 350 353 351 354 352 350 349 346 342 339 346 348
63 21 334 268 265 278 295 312 25 21 327 178 58 319 310 319 153 158 163 172 216 276 299 321 336 344 345 348 351 350 352 354 356 357 358 357 356 355 359 354 356 8 7 8
0 333 336 287 35 7 68 4 7 13 7 33 152 53 353 70 123 143 168 192 248 288 303 328 343 345 350 354 354 355 358 2 1 1 2 1 358 4 358 360 15 19 25 23
18 346 3 310 1 130 40 351 14 26 30 16 39 360 353 9 111 166 191 222 274 295 317 341 347 353 357 357 0 2 4 4 4 6 4 5 7 4 12 23 27 31 32 34
319 348 333 287 329 52 355 9 18 14 44 28 27 10 4 6 342 265 239 258 280 304 336 348 354 359 360 5 10 10 6 6 7 9 10 6 7 6 20 26 31 37 40 41
57 7 351 64 339 229 32 6 349 349 34 25 13 359 356 1 354 305 276 281 294 340 351 354 3 5 6 10 12 5 6 8 11 15 8 7 12 13 22 29 35 40 44 45
46 50 110 8 58 95 12 326 325 284 70 5 358 349 343 343 25 275 313 261 264 1 1 7 11 8 11 14 11 5 7 10 16 11 10 11 14 19 26 30 40 48 51 55
344 6 8 358 19 96 345 332 326 47 347 326 340 334 329 314 260 310 172 165 22 12 18 19 12 10 14 16 13 10 12 17 13 13 15 15 18 26 27 34 49 57 60 68
36 342 339 352 9 8 0 353 41 312 310 325 334 343 339 334 293 156 164 162 13 23 28 20 13 11 17 19 16 15 18 18 16 15 20 23 22 28 30 39 55 64 69 75
9 129 314 287 280 307 317 302 307 314 327 333 338 346 348 323 171 165 168 153 29 23 22 19 15 13 20 21 18 19 19 19 19 20 25 30 28 29 32 41 53 63 68 75
337 1 74 312 46 337 324 116 353 341 337 341 348 340 338 270 199 184 186 174 38 21 22 19 16 15 21 22 21 21 21 21 20 25 29 34 34 31 38 35 49 58 66 74
271 323 319 266 331 348 162 304 329 335 344 344 346 339 316 210 207 204 212 203 54 16 15 17 18 18 20 23 23 23 24 24 25 28 34 37 39 40 42 43 47 52 58 71
347 339 339 294 307 287 281 308 324 325 337 341 333 300 230 209 220 218 220 225 40 22 13 18 19 18 20 22 25 25 26 27 28 31 35 37 40 43 47 54 53 64 64 70